SCP
1 1 2 1 2 2 2 1 1 1 0 0 0 0 0 0 0 0 0 0 0 0 0 0 0 0 0 0 0 0 0 0 0 0 0 0 0 0
1 1 1 1 2 2 2 2 1 1 0 0 0 0 0 0 0 0 0 0 0 0 0 0 0 0 0 0 0 0 0 0 0 0 0 0 0 0
1 1 1 1 2 2 1 0 0 0 0 0 0 0 0 0 0 0 0 0 0 0 0 0 0 0 0 0 0 0 0 0 0 0 0 0 0 0
1 0 0 1 2 1 0 0 0 0 0 0 0 0 0 0 0 0 0 0 0 0 0 0 0 0 0 0 0 0 0 0 0 0 0 0 0 0
1 0 0 1 0 0 0 0 0 0 0 0 0 0 0 0 0 0 0 0 0 0 0 0 0 0 0 0 0 0 0 0 0 0 0 0 0 0
1 0 0 0 0 0 0 0 0 0 0 0 0 0 0 0 0 0 0 0 0 0 0 0 0 0 0 0 0 0 0 0 0 0 0 0 0 0
0 0 0 0 0 0 0 0 0 0 0 0 0 0 0 0 0 0 0 0 0 0 0 0 0 0 0 0 0 0 0 0 0 0 0 0 0 0
0 0 0 0 0 0 0 0 0 0 0 0 0 0 0 0 0 0 0 0 0 0 0 0 0 0 0 0 0 0 0 0 0 0 0 0 0 0
0 0 0 0 0 0 0 0 0 0 0 0 0 0 0 0 0 0 0 0 0 0 0 0 0 0 0 0 0 0 0 0 0 0 0 0 0 0
0 0 0 0 0 0 0 0 0 0 0 0 -0 0 0 0 0 0 0 0 0 0 0 0 0 0 0 0 0 0 0 0 0 0 0 0 0 0
0 0 0 0 0 0 0 0 -0 -0 -0 -0 0 0 0 0 0 0 0 0 0 0 0 0 0 0 0 0 0 0 0 0 0 0 0 0 0 0
0 0 0 0 0 0 0 0 -0 -0 0 -0 -0 -0 -0 -0 -0 0 0 0 0 0 0 0 0 0 0 0 0 0 0 0 0 0 0 0 0 0
0 0 0 0 0 0 0 0 0 0 0 -0 0 0 -0 -0 0 0 0 0 0 0 0 0 0 0 0 0 0 0 0 0 0 0 0 0 0 0
0 0 0 0 0 0 0 0 -0 -0 -0 0 0 0 0 0 0 0 0 0 0 0 0 0 0 0 0 0 0 0 0 0 0 0 0 0 0 0
0 -0 -0 -0 0 0 0 0 -0 0 0 0 0 0 0 0 0 0 0 0 0 0 0 0 0 0 0 0 0 0 0 0 0 0 0 0 0 0
-0 0 -0 0 0 0 0 0 0 0 0 0 0 0 0 0 0 0 0 0 0 0 0 0 0 0 0 0 0 0 0 0 0 0 0 0 0 0
0 0 0 0 0 0 0 0 0 0 0 0 0 0 0 0 0 0 0 0 0 0 0 0 0 0 0 0 0 0 0 0 0 0 0 0 0 0
0 0 0 0 0 0 0 0 0 0 0 0 0 0 0 0 0 0 0 0 0 0 0 0 0 -0 0 0 -0 0 0 0 0 0 0 0 0 0
0 0 0 0 0 -0 -0 -0 0 0 0 0 0 0 0 0 0 0 0 0 0 0 0 0 0 0 0 0 0 0 0 0 0 0 0 0 0 0
0 0 0 0 0 0 -0 -0 -0 0 0 0 0 0 0 0 0 0 0 0 0 0 0 0 0 0 0 0 0 0 0 0 0 0 0 0 0 0
0 0 0 0 0 0 0 -0 -0 -0 0 0 0 0 0 0 0 0 0 0 0 -0 0 0 0 0 0 0 0 0 0 0 0 0 0 0 0 0
0 0 0 0 -0 -0 0 0 -0 0 0 0 0 0 0 0 0 0 0 0 0 0 0 0 0 0 0 0 0 0 0 0 0 0 0 0 0 0
-0 0 0 0 -0 0 0 0 0 0 0 0 0 0 0 0 0 0 0 -0 -0 0 0 0 0 0 0 0 0 0 0 0 0 0 0 0 0 0
Wind_Speed_500mb
82 86 79 75 70 63 58 60 58 54 29 30 37 37 30 43 39 43 42 39 41 41 43 37 38 44 43 36 35 32 31 29 28 30 28 24 23 24
76 84 81 73 62 58 56 64 58 53 34 24 41 40 42 38 37 38 36 39 38 39 31 39 43 47 32 28 26 29 26 25 22 22 23 25 27 28
71 76 78 66 57 52 47 52 57 49 52 35 42 38 40 44 28 29 33 36 28 27 29 33 43 30 27 26 26 25 25 25 24 23 25 24 21 21
71 69 72 61 55 55 53 59 50 42 41 44 49 47 40 25 15 24 29 23 21 17 28 36 32 27 28 27 26 28 25 25 24 22 23 22 22 23
63 61 63 58 56 55 58 48 38 39 41 41 39 29 20 19 20 17 14 19 17 21 27 23 29 26 27 31 32 32 24 23 24 24 26 25 23 23
48 54 55 58 55 55 41 34 28 29 27 26 23 21 11 9 13 14 14 3 21 14 17 20 25 26 26 31 34 34 33 30 29 29 30 32 29 25
53 51 53 49 52 36 34 34 33 31 33 26 13 4 4 13 19 14 11 15 13 6 21 25 20 24 23 22 29 33 37 44 39 39 38 36 35 32
43 44 38 30 28 35 36 35 33 31 24 14 18 11 11 10 17 15 4 17 10 6 25 13 17 17 28 30 38 29 34 39 45 51 53 53 49 43
39 37 29 28 30 33 39 31 20 17 21 19 11 12 13 10 10 4 8 16 15 17 24 20 9 15 30 37 39 26 32 43 56 59 53 52 51 46
42 38 33 36 32 28 27 24 20 32 25 10 7 11 15 17 12 13 16 11 13 12 20 18 16 24 36 28 26 25 45 46 39 36 38 39 33 37
42 38 35 37 41 35 33 41 39 32 30 25 26 25 28 31 21 12 14 12 14 12 14 27 32 44 34 18 22 39 35 29 31 33 31 33 32 27
54 52 50 53 52 43 36 28 24 19 25 26 24 25 23 28 27 27 28 15 16 10 19 34 35 44 30 8 37 36 38 27 29 27 28 33 25 19
63 62 62 54 49 40 34 26 27 28 23 13 17 19 21 28 29 26 28 20 16 16 24 30 35 37 38 46 44 44 39 29 32 33 43 30 5 6
72 65 61 49 47 40 38 27 21 21 21 15 11 13 11 20 21 24 23 28 22 17 29 32 32 33 33 37 43 49 40 26 31 33 39 23 11 11
67 62 58 57 52 41 27 26 29 23 19 19 17 18 23 19 12 11 17 16 15 26 26 28 26 34 23 25 37 42 43 26 28 29 34 23 20 15
64 57 53 47 41 34 29 30 30 28 24 21 22 17 10 16 23 24 29 36 21 20 21 25 22 26 16 19 31 43 32 27 23 24 27 20 12 18
50 49 45 38 35 34 33 32 29 29 27 21 15 15 18 18 25 28 35 43 40 38 38 32 23 16 8 23 38 48 35 24 24 20 21 18 14 14
48 48 46 41 40 36 33 34 32 32 32 22 18 24 24 29 29 29 34 42 48 42 39 33 28 20 13 23 45 54 36 27 27 26 22 31 27 22
52 47 47 44 41 39 35 33 28 26 22 30 26 27 30 31 31 35 34 42 49 38 34 29 25 25 25 32 42 54 40 31 26 28 34 36 40 37
52 50 47 44 40 40 39 38 38 30 26 28 34 37 36 31 32 35 38 43 41 34 30 25 22 20 23 29 34 42 42 23 28 33 33 32 43 47
51 48 42 38 39 36 40 38 37 37 34 37 37 33 32 33 38 41 39 39 38 33 29 28 22 18 19 21 33 35 44 37 21 31 42 44 49 48
47 46 44 41 32 33 33 35 33 39 43 43 37 31 32 37 39 43 40 38 37 30 23 22 21 19 20 26 31 31 39 51 54 43 30 35 39 45
48 41 37 36 42 39 30 28 30 35 40 38 42 38 38 41 42 43 36 33 32 29 24 22 20 19 22 24 25 28 35 50 55 57 56 55 54 54
Wind_Direction_500mb
250 249 245 247 251 252 251 249 251 261 253 243 240 224 243 263 252 268 279 305 299 298 299 307 316 314 312 307 305 311 307 300 294 287 281 272 266 253
255 250 246 248 247 248 254 252 256 259 242 214 210 216 223 236 252 283 297 297 302 299 309 313 317 323 318 315 320 316 313 313 308 301 294 290 275 259
256 250 244 242 242 241 240 255 255 253 244 212 207 214 211 234 269 279 292 297 294 300 297 308 323 327 327 323 316 320 314 311 309 307 302 295 286 274
258 250 244 238 237 237 239 245 251 252 242 223 205 210 224 243 265 291 289 310 327 312 312 312 321 340 343 332 326 327 315 307 307 310 310 307 291 286
257 252 243 230 227 237 243 252 245 234 229 226 209 209 233 249 289 295 301 323 330 310 300 300 316 327 327 322 326 329 311 311 308 300 297 295 293 285
247 243 235 229 229 237 243 240 224 211 203 189 179 188 230 286 316 300 317 29 285 292 291 294 308 306 302 324 321 309 328 312 313 311 308 301 294 284
232 228 228 223 233 225 232 209 200 197 179 174 169 92 141 242 286 308 327 309 309 298 269 306 312 311 308 312 315 299 308 306 304 306 305 305 300 289
217 204 216 205 220 213 196 188 183 176 173 153 122 190 258 279 271 324 334 318 18 301 333 313 318 310 310 286 320 275 281 285 292 299 297 294 290 283
190 188 189 178 186 187 174 165 173 188 149 140 161 223 248 299 314 66 16 29 354 345 315 338 320 345 348 320 313 291 291 292 296 296 291 284 278 273
156 155 161 158 153 161 161 150 118 87 83 109 107 128 58 30 73 54 23 351 338 12 314 333 317 303 323 301 293 303 311 310 310 310 307 300 292 270
139 138 139 139 134 122 109 94 91 96 97 88 69 60 41 36 53 63 11 26 21 343 300 339 319 327 343 291 297 316 327 324 325 321 318 307 299 288
122 120 118 112 101 94 92 87 91 104 89 67 58 42 40 25 20 28 11 8 358 346 310 328 327 341 337 337 343 353 350 344 343 339 334 326 290 272
112 106 98 95 93 90 85 94 93 83 78 63 61 41 39 17 13 13 356 7 2 357 320 335 340 347 343 337 353 2 359 360 0 4 354 351 22 191
94 89 86 88 90 94 98 87 80 76 74 87 71 56 29 28 27 11 11 11 2 350 340 332 339 343 337 343 351 353 5 14 12 15 8 21 80 99
86 84 83 82 78 82 89 98 88 82 80 70 59 45 36 36 40 10 342 342 6 353 348 356 351 345 348 352 347 358 7 21 26 25 17 40 80 107
78 77 77 74 72 68 77 74 64 65 67 62 60 53 55 26 14 23 11 7 5 350 338 346 340 351 12 359 4 9 15 9 28 26 12 26 82 114
75 72 75 76 76 69 63 59 70 65 54 52 55 36 17 29 25 15 6 12 12 5 2 6 20 16 24 18 27 24 23 27 27 30 30 37 90 132
82 78 74 70 66 61 58 57 53 57 48 37 41 39 30 24 24 11 4 9 9 8 8 14 24 45 74 52 31 27 31 37 45 54 64 69 86 102
76 71 67 63 59 54 53 50 51 59 53 34 29 39 32 26 14 13 2 358 3 4 11 13 22 29 43 44 39 31 38 49 49 68 68 68 92 94
69 66 62 57 57 54 46 42 34 42 45 47 38 27 23 17 7 1 356 360 3 10 17 27 31 38 49 53 44 39 48 50 70 73 71 89 94 106
61 59 56 56 56 57 51 42 36 33 41 41 36 28 14 6 6 12 13 12 15 23 37 33 34 53 72 79 65 55 52 57 77 93 85 98 103 108
58 54 49 42 53 59 57 49 35 34 37 31 27 22 11 6 16 15 15 21 25 31 37 41 61 78 85 81 72 71 71 64 66 75 92 108 108 107
55 50 44 49 44 43 55 62 45 43 38 28 22 17 17 23 19 18 23 27 31 40 45 58 76 88 87 87 79 83 86 82 78 78 78 84 97 102
Wind_Speed_850mb
82 86 79 75 70 63 58 60 58 54 29 30 37 37 30 43 39 43 42 39 41 41 43 37 38 44 43 36 35 32 31 29 28 30 28 24 23 24
76 84 81 73 62 58 56 64 58 53 34 24 41 40 42 38 37 38 36 39 38 39 31 39 43 47 32 28 26 29 26 25 22 22 23 25 27 28
71 76 78 66 57 52 47 52 57 49 52 35 42 38 40 44 28 29 33 36 28 27 29 33 43 30 27 26 26 25 25 25 24 23 25 24 21 21
71 69 72 61 55 55 53 59 50 42 41 44 49 47 40 25 15 24 29 23 21 17 28 36 32 27 28 27 26 28 25 25 24 22 23 22 22 23
63 61 63 58 56 55 58 48 38 39 41 41 39 29 20 19 20 17 14 19 17 21 27 23 29 26 27 31 32 32 24 23 24 24 26 25 23 23
48 54 55 58 55 55 41 34 28 29 27 26 23 21 11 9 13 14 14 3 21 14 17 20 25 26 26 31 34 34 33 30 29 29 30 32 29 25
53 51 53 49 52 36 34 34 33 31 33 26 13 4 4 13 19 14 11 15 13 6 21 25 20 24 23 22 29 33 37 44 39 39 38 36 35 32
43 44 38 30 28 35 36 35 33 31 24 14 18 11 11 10 17 15 4 17 10 6 25 13 17 17 28 30 38 29 34 39 45 51 53 53 49 43
39 37 29 28 30 33 39 31 20 17 21 19 11 12 13 10 10 4 8 16 15 17 24 20 9 15 30 37 39 26 32 43 56 59 53 52 51 46
42 38 33 36 32 28 27 24 20 32 25 10 7 11 15 17 12 13 16 11 13 12 20 18 16 24 36 28 26 25 45 46 39 36 38 39 33 37
42 38 35 37 41 35 33 41 39 32 30 25 26 25 28 31 21 12 14 12 14 12 14 27 32 44 34 18 22 39 35 29 31 33 31 33 32 27
54 52 50 53 52 43 36 28 24 19 25 26 24 25 23 28 27 27 28 15 16 10 19 34 35 44 30 8 37 36 38 27 29 27 28 33 25 19
63 62 62 54 49 40 34 26 27 28 23 13 17 19 21 28 29 26 28 20 16 16 24 30 35 37 38 46 44 44 39 29 32 33 43 30 5 6
72 65 61 49 47 40 38 27 21 21 21 15 11 13 11 20 21 24 23 28 22 17 29 32 32 33 33 37 43 49 40 26 31 33 39 23 11 11
67 62 58 57 52 41 27 26 29 23 19 19 17 18 23 19 12 11 17 16 15 26 26 28 26 34 23 25 37 42 43 26 28 29 34 23 20 15
64 57 53 47 41 34 29 30 30 28 24 21 22 17 10 16 23 24 29 36 21 20 21 25 22 26 16 19 31 43 32 27 23 24 27 20 12 18
50 49 45 38 35 34 33 32 29 29 27 21 15 15 18 18 25 28 35 43 40 38 38 32 23 16 8 23 38 48 35 24 24 20 21 18 14 14
48 48 46 41 40 36 33 34 32 32 32 22 18 24 24 29 29 29 34 42 48 42 39 33 28 20 13 23 45 54 36 27 27 26 22 31 27 22
52 47 47 44 41 39 35 33 28 26 22 30 26 27 30 31 31 35 34 42 49 38 34 29 25 25 25 32 42 54 40 31 26 28 34 36 40 37
52 50 47 44 40 40 39 38 38 30 26 28 34 37 36 31 32 35 38 43 41 34 30 25 22 20 23 29 34 42 42 23 28 33 33 32 43 47
51 48 42 38 39 36 40 38 37 37 34 37 37 33 32 33 38 41 39 39 38 33 29 28 22 18 19 21 33 35 44 37 21 31 42 44 49 48
47 46 44 41 32 33 33 35 33 39 43 43 37 31 32 37 39 43 40 38 37 30 23 22 21 19 20 26 31 31 39 51 54 43 30 35 39 45
48 41 37 36 42 39 30 28 30 35 40 38 42 38 38 41 42 43 36 33 32 29 24 22 20 19 22 24 25 28 35 50 55 57 56 55 54 54
Wind_Direction_850mb
250 249 245 247 251 252 251 249 251 261 253 243 240 224 243 263 252 268 279 305 299 298 299 307 316 314 312 307 305 311 307 300 294 287 281 272 266 253
255 250 246 248 247 248 254 252 256 259 242 214 210 216 223 236 252 283 297 297 302 299 309 313 317 323 318 315 320 316 313 313 308 301 294 290 275 259
256 250 244 242 242 241 240 255 255 253 244 212 207 214 211 234 269 279 292 297 294 300 297 308 323 327 327 323 316 320 314 311 309 307 302 295 286 274
258 250 244 238 237 237 239 245 251 252 242 223 205 210 224 243 265 291 289 310 327 312 312 312 321 340 343 332 326 327 315 307 307 310 310 307 291 286
257 252 243 230 227 237 243 252 245 234 229 226 209 209 233 249 289 295 301 323 330 310 300 300 316 327 327 322 326 329 311 311 308 300 297 295 293 285
247 243 235 229 229 237 243 240 224 211 203 189 179 188 230 286 316 300 317 29 285 292 291 294 308 306 302 324 321 309 328 312 313 311 308 301 294 284
232 228 228 223 233 225 232 209 200 197 179 174 169 92 141 242 286 308 327 309 309 298 269 306 312 311 308 312 315 299 308 306 304 306 305 305 300 289
217 204 216 205 220 213 196 188 183 176 173 153 122 190 258 279 271 324 334 318 18 301 333 313 318 310 310 286 320 275 281 285 292 299 297 294 290 283
190 188 189 178 186 187 174 165 173 188 149 140 161 223 248 299 314 66 16 29 354 345 315 338 320 345 348 320 313 291 291 292 296 296 291 284 278 273
156 155 161 158 153 161 161 150 118 87 83 109 107 128 58 30 73 54 23 351 338 12 314 333 317 303 323 301 293 303 311 310 310 310 307 300 292 270
139 138 139 139 134 122 109 94 91 96 97 88 69 60 41 36 53 63 11 26 21 343 300 339 319 327 343 291 297 316 327 324 325 321 318 307 299 288
122 120 118 112 101 94 92 87 91 104 89 67 58 42 40 25 20 28 11 8 358 346 310 328 327 341 337 337 343 353 350 344 343 339 334 326 290 272
112 106 98 95 93 90 85 94 93 83 78 63 61 41 39 17 13 13 356 7 2 357 320 335 340 347 343 337 353 2 359 360 0 4 354 351 22 191
94 89 86 88 90 94 98 87 80 76 74 87 71 56 29 28 27 11 11 11 2 350 340 332 339 343 337 343 351 353 5 14 12 15 8 21 80 99
86 84 83 82 78 82 89 98 88 82 80 70 59 45 36 36 40 10 342 342 6 353 348 356 351 345 348 352 347 358 7 21 26 25 17 40 80 107
78 77 77 74 72 68 77 74 64 65 67 62 60 53 55 26 14 23 11 7 5 350 338 346 340 351 12 359 4 9 15 9 28 26 12 26 82 114
75 72 75 76 76 69 63 59 70 65 54 52 55 36 17 29 25 15 6 12 12 5 2 6 20 16 24 18 27 24 23 27 27 30 30 37 90 132
82 78 74 70 66 61 58 57 53 57 48 37 41 39 30 24 24 11 4 9 9 8 8 14 24 45 74 52 31 27 31 37 45 54 64 69 86 102
76 71 67 63 59 54 53 50 51 59 53 34 29 39 32 26 14 13 2 358 3 4 11 13 22 29 43 44 39 31 38 49 49 68 68 68 92 94
69 66 62 57 57 54 46 42 34 42 45 47 38 27 23 17 7 1 356 360 3 10 17 27 31 38 49 53 44 39 48 50 70 73 71 89 94 106
61 59 56 56 56 57 51 42 36 33 41 41 36 28 14 6 6 12 13 12 15 23 37 33 34 53 72 79 65 55 52 57 77 93 85 98 103 108
58 54 49 42 53 59 57 49 35 34 37 31 27 22 11 6 16 15 15 21 25 31 37 41 61 78 85 81 72 71 71 64 66 75 92 108 108 107
55 50 44 49 44 43 55 62 45 43 38 28 22 17 17 23 19 18 23 27 31 40 45 58 76 88 87 87 79 83 86 82 78 78 78 84 97 102